Weather History for Olathe New Century, KS

Change the Weather History Date:

Monday, January 16, 2012

  Actual Average Record
Temperature  
Mean Temperature 50 °F -  
Max Temperature 64 °F 37 °F 64 °F (2012)
Min Temperature 37 °F 19 °F 0 °F (2007)
Degree Days  
Heating Degree Days 14    
Moisture  
Dew Point 35 °F    
Average Humidity 59    
Maximum Humidity 83    
Minimum Humidity 24    
Precipitation  
Precipitation 0.00 in - - ()
Sea Level Pressure  
Sea Level Pressure 29.70 in    
Wind  
Wind Speed 15 mph (SW)    
Max Wind Speed 28 mph    
Max Gust Speed 39 mph    
Visibility 10 miles    
Events Rain    
Averages and records for this station are not official NWS values.
T = Trace of Precipitation, MM = Missing Value Source: NWS Daily Summary

Daily Weather History Graph

Daily Weather History Graph

Search for Another Location

Airport:

Trip Planner

Search our weather history database for the weather conditions in past years. The results will help you decide how hot, cold, wet, or windy it might be!

Date:

Astronomy

Jan. 16, 2012 Rise Set
Actual Time 7:36 AM CST 5:22 PM CST
Civil Twilight 7:07 AM CST 5:51 PM CST
Nautical Twilight 6:34 AM CST 6:24 PM CST
Astronomical Twilight 6:02 AM CST 6:56 PM CST
Moon 12:47 AM CST (1/16) 11:36 AM CST (1/16)
Length of Visible Light 10h 44m
Length of Day
9h 46m
Last Quarter, 46% of the Moon is Illuminated
Jan 16
Last Quarter
Jan 23
New
Jan 30
First Quarter
Feb 7
Full
Feb 14
Last Quarter

Hourly Weather History & Observations

Time (CST) Temp. Windchill Dew Point Humidity Pressure Visibility Wind Dir Wind Speed Gust Speed Precip Events Conditions
12:53 AM 48.0 °F - 30.9 °F 52% 29.78 in 10.0 mi South 13.8 mph - N/A   Clear
1:53 AM 48.0 °F - 34.0 °F 58% 29.75 in 10.0 mi South 15.0 mph - N/A   Clear
2:53 AM 50.0 °F - 37.9 °F 63% 29.73 in 10.0 mi South 15.0 mph - N/A   Clear
3:53 AM 50.0 °F - 39.9 °F 68% 29.70 in 10.0 mi South 17.3 mph 27.6 mph N/A   Clear
4:53 AM 50.0 °F - 42.1 °F 74% 29.68 in 10.0 mi South 16.1 mph 25.3 mph N/A   Clear
5:53 AM 50.0 °F - 42.1 °F 74% 29.68 in 10.0 mi South 12.7 mph - N/A   Clear
6:53 AM 48.9 °F - 43.0 °F 80% 29.70 in 10.0 mi South 8.1 mph - N/A   Clear
7:53 AM 46.9 °F - 42.1 °F 83% 29.70 in 10.0 mi South 8.1 mph - N/A   Clear
8:53 AM 53.1 °F - 45.0 °F 74% 29.69 in 10.0 mi South 17.3 mph 21.9 mph N/A   Clear
9:53 AM 57.0 °F - 43.0 °F 59% 29.68 in 10.0 mi SSW 24.2 mph 39.1 mph N/A   Clear
10:53 AM 59.0 °F - 41.0 °F 51% 29.68 in 10.0 mi SSW 21.9 mph 35.7 mph N/A   Clear
11:53 AM 61.0 °F - 37.0 °F 41% 29.67 in 10.0 mi SW 27.6 mph 34.5 mph N/A   Clear
12:53 PM 64.0 °F - 33.1 °F 31% 29.64 in 10.0 mi SW 27.6 mph 35.7 mph N/A   Clear
1:53 PM 64.9 °F - 28.9 °F 26% 29.62 in 10.0 mi SW 25.3 mph 35.7 mph N/A   Clear
2:53 PM 64.0 °F - 26.1 °F 24% 29.64 in 10.0 mi West 17.3 mph 23.0 mph N/A   Clear
3:53 PM 57.9 °F - 26.1 °F 30% 29.67 in 10.0 mi West 12.7 mph - N/A   Clear
4:53 PM 53.1 °F - 27.0 °F 37% 29.70 in 10.0 mi West 12.7 mph - N/A   Clear
5:53 PM 46.0 °F 41.0 °F 32.0 °F 58% 29.72 in 10.0 mi WNW 10.4 mph - N/A   Clear
6:53 PM 43.0 °F 36.8 °F 33.1 °F 68% 29.73 in 10.0 mi NW 11.5 mph - N/A   Clear
7:53 PM 39.9 °F 34.5 °F 30.9 °F 70% 29.73 in 10.0 mi NNW 8.1 mph - N/A   Clear
8:53 PM 41.0 °F 35.8 °F 30.0 °F 65% 29.77 in 10.0 mi NNW 8.1 mph - N/A   Mostly Cloudy
9:05 PM 39.2 °F 32.0 °F 30.2 °F 70% 29.75 in 5.0 mi NNW 11.5 mph - 0.02 in Rain Rain
10:53 PM 37.0 °F 30.4 °F 30.9 °F 79% 29.71 in 10.0 mi North 9.2 mph - N/A   Overcast
11:53 PM 37.0 °F 29.8 °F 30.0 °F 76% 29.72 in 10.0 mi NNW 10.4 mph - N/A   Overcast